| time (UTC) | temp F | wind direction | speed knots | gust knots | rain 1hr in | rain 24hr in | rain mn in | humidity % | barometer mb |
| 20260502194338 | 71 | 27 | 11.3 | 11.3 | 0.00 | 0.00 | 0.00 | 29 | 933.0 |
| 20260502193834 | 70 | 55 | 4.3 | 10.4 | 0.00 | 0.00 | 0.00 | 28 | 933.1 |
| 20260502193331 | 71 | 58 | 12.2 | 12.2 | 0.00 | 0.00 | 0.00 | 28 | 933.1 |
| 20260502192827 | 71 | 32 | 5.2 | 10.4 | 0.00 | 0.00 | 0.00 | 27 | 933.1 |
| 20260502192324 | 70 | 342 | 3.5 | 9.6 | 0.00 | 0.00 | 0.00 | 27 | 933.2 |
| 20260502191821 | 71 | 1 | 6.1 | 11.3 | 0.00 | 0.00 | 0.00 | 28 | 933.3 |
| 20260502191319 | 71 | 22 | 7.0 | 11.3 | 0.00 | 0.00 | 0.00 | 29 | 933.3 |
| 20260502190816 | 70 | 24 | 6.1 | 9.6 | 0.00 | 0.00 | 0.00 | 28 | 933.2 |
| 20260502190313 | 69 | 26 | 9.6 | 10.4 | 0.00 | 0.00 | 0.00 | 28 | 933.3 |
| 20260502185809 | 69 | 52 | 8.7 | 13.0 | 0.00 | 0.00 | 0.00 | 30 | 933.4 |
| 20260502185305 | 70 | 62 | 10.4 | 12.2 | 0.00 | 0.00 | 0.00 | 28 | 933.4 |
| 20260502184802 | 71 | 4 | 8.7 | 12.2 | 0.00 | 0.00 | 0.00 | 27 | 933.3 |
| 20260502184257 | 70 | 28 | 7.8 | 11.3 | 0.00 | 0.00 | 0.00 | 26 | 933.6 |
| 20260502183754 | 70 | 355 | 5.2 | 9.6 | 0.00 | 0.00 | 0.00 | 26 | 933.6 |
| 20260502183250 | 70 | 62 | 5.2 | 11.3 | 0.00 | 0.00 | 0.00 | 26 | 933.3 |
| 20260502182745 | 70 | 3 | 5.2 | 11.3 | 0.00 | 0.00 | 0.00 | 28 | 933.4 |
| 20260502182241 | 71 | 26 | 5.2 | 11.3 | 0.00 | 0.00 | 0.00 | 27 | 933.6 |
| 20260502181738 | 70 | 28 | 12.2 | 13.0 | 0.00 | 0.00 | 0.00 | 27 | 933.4 |
| 20260502181237 | 70 | 29 | 11.3 | 13.0 | 0.00 | 0.00 | 0.00 | 27 | 933.5 |
| 20260502180734 | 70 | 11 | 10.4 | 10.4 | 0.00 | 0.00 | 0.00 | 28 | 933.6 |
| 20260502180232 | 70 | 4 | 9.6 | 10.4 | 0.00 | 0.00 | 0.00 | 27 | 933.6 |
| 20260502170156 | 70 | 58 | 7.8 | 13.9 | 0.00 | 0.00 | 0.00 | 25 | 933.6 |
| 20260502164142 | 69 | 254 | 5.2 | 12.2 | 0.00 | 0.00 | 0.00 | 24 | 933.5 |
| 20260502163638 | 68 | 279 | 5.2 | 7.8 | 0.00 | 0.00 | 0.00 | 25 | 933.6 |
| 20260502163135 | 68 | 248 | 6.1 | 12.2 | 0.00 | 0.00 | 0.00 | 25 | 933.6 |
| 20260502162632 | 68 | 271 | 7.0 | 12.2 | 0.00 | 0.00 | 0.00 | 25 | 933.7 |
| 20260502162129 | 68 | 255 | 6.1 | 12.2 | 0.00 | 0.00 | 0.00 | 23 | 933.7 |
| 20260502161626 | 68 | 231 | 12.2 | 15.6 | 0.00 | 0.00 | 0.00 | 24 | 933.6 |
| 20260502161123 | 67 | 253 | 11.3 | 16.5 | 0.00 | 0.00 | 0.00 | 25 | 933.6 |
| 20260502160621 | 68 | 251 | 13.9 | 17.4 | 0.00 | 0.00 | 0.00 | 24 | 933.3 |
| 20260502160120 | 67 | 243 | 9.6 | 16.5 | 0.00 | 0.00 | 0.00 | 27 | 933.3 |
| 20260502152034 | 64 | 237 | 10.4 | 18.2 | 0.00 | 0.00 | 0.00 | 27 | 933.5 |
| 20260502151531 | 64 | 227 | 17.4 | 17.4 | 0.00 | 0.00 | 0.00 | 25 | 933.4 |
| 20260502151028 | 64 | 225 | 14.8 | 18.2 | 0.00 | 0.00 | 0.00 | 26 | 933.5 |
| 20260502150525 | 63 | 226 | 17.4 | 19.1 | 0.00 | 0.00 | 0.00 | 26 | 933.4 |
| 20260502130410 | 55 | 281 | 4.3 | 13.0 | 0.00 | 0.00 | 0.00 | 31 | 933.0 |
| 20260502123353 | 52 | 232 | 5.2 | 7.8 | 0.00 | 0.00 | 0.00 | 34 | 933.0 |
| 20260502122850 | 52 | 234 | 9.6 | 11.3 | 0.00 | 0.00 | 0.00 | 34 | 932.6 |
| 20260502122346 | 52 | 247 | 9.6 | 14.8 | 0.00 | 0.00 | 0.00 | 33 | 932.8 |
| 20260502121844 | 51 | 247 | 9.6 | 17.4 | 0.00 | 0.00 | 0.00 | 34 | 932.5 |
| 20260502121341 | 51 | 233 | 13.0 | 16.5 | 0.00 | 0.00 | 0.00 | 34 | 932.7 |
| 20260502120839 | 51 | 243 | 12.2 | 14.8 | 0.00 | 0.00 | 0.00 | 34 | 932.7 |
| 20260502120334 | 52 | 246 | 7.8 | 13.9 | 0.00 | 0.00 | 0.00 | 33 | 932.8 |
| 20260502115832 | 53 | 248 | 7.8 | 15.6 | 0.00 | 0.00 | 0.00 | 32 | 932.6 |
| 20260502115329 | 53 | 245 | 12.2 | 15.6 | 0.00 | 0.00 | 0.00 | 32 | 932.6 |
| 20260502114826 | 53 | 253 | 11.3 | 16.5 | 0.00 | 0.00 | 0.00 | 32 | 932.6 |
| 20260502114322 | 52 | 257 | 9.6 | 14.8 | 0.00 | 0.00 | 0.00 | 33 | 932.7 |
| 20260502113819 | 52 | 250 | 10.4 | 13.9 | 0.00 | 0.00 | 0.00 | 33 | 932.6 |
| 20260502113317 | 52 | 245 | 10.4 | 15.6 | 0.00 | 0.00 | 0.00 | 33 | 932.7 |
| 20260502112815 | 52 | 247 | 10.4 | 13.9 | 0.00 | 0.00 | 0.00 | 33 | 932.6 |
| 20260502112312 | 49 | 257 | 5.2 | 11.3 | 0.00 | 0.00 | 0.00 | 38 | 932.9 |
| 20260502111809 | 48 | 276 | 5.2 | 7.8 | 0.00 | 0.00 | 0.00 | 39 | 932.8 |
| 20260502111307 | 47 | 291 | 2.6 | 3.5 | 0.00 | 0.00 | 0.00 | 42 | 933.0 |
| 20260502110804 | 48 | 353 | 5.2 | 7.0 | 0.00 | 0.00 | 0.00 | 42 | 933.1 |
| 20260502110302 | 51 | 349 | 3.5 | 5.2 | 0.00 | 0.00 | 0.00 | 36 | 932.9 |
| 20260502105800 | 51 | 252 | 7.8 | 10.4 | 0.00 | 0.00 | 0.00 | 35 | 932.5 |
| 20260502105256 | 51 | 244 | 7.8 | 11.3 | 0.00 | 0.00 | 0.00 | 35 | 932.4 |
| 20260502104754 | 51 | 252 | 9.6 | 12.2 | 0.00 | 0.00 | 0.00 | 35 | 932.4 |
| 20260502104251 | 51 | 242 | 8.7 | 13.0 | 0.00 | 0.00 | 0.00 | 35 | 932.4 |
| 20260502103748 | 52 | 246 | 11.3 | 14.8 | 0.00 | 0.00 | 0.00 | 34 | 932.3 |
| 20260502103246 | 52 | 246 | 9.6 | 13.9 | 0.00 | 0.00 | 0.00 | 34 | 932.3 |
| 20260502102743 | 52 | 251 | 11.3 | 13.0 | 0.00 | 0.00 | 0.00 | 34 | 932.1 |
| 20260502102239 | 52 | 249 | 10.4 | 13.0 | 0.00 | 0.00 | 0.00 | 34 | 932.2 |
| 20260502101737 | 53 | 255 | 8.7 | 13.0 | 0.00 | 0.00 | 0.00 | 33 | 932.1 |
| 20260502101235 | 53 | 249 | 11.3 | 17.4 | 0.00 | 0.00 | 0.00 | 33 | 932.1 |
| 20260502100733 | 54 | 245 | 11.3 | 16.5 | 0.00 | 0.00 | 0.00 | 32 | 932.1 |
| 20260502100231 | 53 | 253 | 10.4 | 13.9 | 0.00 | 0.00 | 0.00 | 33 | 932.1 |
| 20260502091205 | 53 | 245 | 5.2 | 12.2 | 0.00 | 0.00 | 0.00 | 35 | 932.1 |
| 20260502090703 | 53 | 253 | 6.1 | 12.2 | 0.00 | 0.00 | 0.00 | 35 | 932.3 |
| 20260502090200 | 53 | 255 | 7.8 | 11.3 | 0.00 | 0.00 | 0.00 | 35 | 932.2 |
| 20260502071101 | 54 | 236 | 5.2 | 6.1 | 0.00 | 0.00 | 0.00 | 33 | 932.7 |
| 20260502070559 | 54 | 241 | 5.2 | 7.0 | 0.00 | 0.00 | 0.00 | 32 | 932.8 |
| 20260502070057 | 52 | 246 | 4.3 | 6.1 | 0.00 | 0.00 | 0.00 | 34 | 932.8 |
| 20260502065555 | 50 | 212 | 0.0 | 1.7 | 0.00 | 0.00 | 0.00 | 38 | 932.8 |
| 20260502065052 | 51 | 144 | 0.0 | 1.7 | 0.00 | 0.00 | 0.00 | 37 | 932.9 |
| 20260502064551 | 51 | 209 | 0.9 | 1.7 | 0.00 | 0.00 | 0.00 | 37 | 932.8 |
| 20260502064047 | 51 | 165 | 1.7 | 1.7 | 0.00 | 0.00 | 0.00 | 37 | 932.9 |
| 20260502063545 | 51 | 130 | 1.7 | 2.6 | 0.00 | 0.00 | 0.00 | 37 | 932.8 |
| 20260502063043 | 52 | 137 | 2.6 | 2.6 | 0.00 | 0.00 | 0.00 | 36 | 932.8 |
| 20260502062540 | 55 | 196 | 1.7 | 3.5 | 0.00 | 0.00 | 0.00 | 33 | 932.8 |
| 20260502062038 | 54 | 259 | 4.3 | 4.3 | 0.00 | 0.00 | 0.00 | 33 | 932.9 |
| 20260502061536 | 54 | 245 | 2.6 | 5.2 | 0.00 | 0.00 | 0.00 | 34 | 932.9 |
| 20260502061032 | 54 | 226 | 3.5 | 4.3 | 0.00 | 0.00 | 0.00 | 35 | 932.6 |
| 20260502060527 | 54 | 238 | 6.1 | 7.0 | 0.00 | 0.00 | 0.00 | 34 | 932.9 |
| 20260502060025 | 54 | 233 | 7.0 | 7.8 | 0.00 | 0.00 | 0.00 | 35 | 932.8 |
| 20260502055522 | 54 | 236 | 6.1 | 8.7 | 0.00 | 0.00 | 0.00 | 36 | 932.7 |
| 20260502055021 | 53 | 230 | 6.1 | 7.0 | 0.00 | 0.00 | 0.00 | 37 | 932.6 |
| 20260502054519 | 54 | 225 | 4.3 | 5.2 | 0.00 | 0.00 | 0.00 | 37 | 932.7 |
| 20260502054016 | 54 | 238 | 3.5 | 4.3 | 0.00 | 0.00 | 0.00 | 37 | 932.7 |
| 20260502053513 | 54 | 227 | 1.7 | 5.2 | 0.00 | 0.00 | 0.00 | 37 | 932.7 |
| 20260502053011 | 53 | 237 | 3.5 | 4.3 | 0.00 | 0.00 | 0.00 | 38 | 932.8 |
| 20260502052509 | 53 | 233 | 2.6 | 5.2 | 0.00 | 0.00 | 0.00 | 39 | 932.9 |
| 20260502052007 | 52 | 228 | 4.3 | 5.2 | 0.00 | 0.00 | 0.00 | 41 | 932.7 |
| 20260502051504 | 52 | 201 | 2.6 | 3.5 | 0.00 | 0.00 | 0.00 | 42 | 932.8 |
| 20260502051001 | 52 | 192 | 1.7 | 3.5 | 0.00 | 0.00 | 0.00 | 41 | 932.8 |
| 20260502050457 | 53 | 221 | 3.5 | 4.3 | 0.00 | 0.00 | 0.00 | 41 | 932.8 |
| 20260502045955 | 54 | 196 | 2.6 | 4.3 | 0.00 | 0.00 | 0.00 | 39 | 932.8 |
| 20260502045452 | 54 | 183 | 2.6 | 2.6 | 0.00 | 0.00 | 0.00 | 39 | 932.7 |
| 20260502044949 | 54 | 185 | 1.7 | 2.6 | 0.00 | 0.00 | 0.00 | 40 | 932.7 |
| 20260502044444 | 54 | 197 | 2.6 | 3.5 | 0.00 | 0.00 | 0.00 | 39 | 932.9 |
| 20260502043941 | 55 | 191 | 2.6 | 2.6 | 0.00 | 0.00 | 0.00 | 40 | 932.8 |
| 20260502043439 | 54 | 218 | 4.3 | 6.1 | 0.00 | 0.00 | 0.00 | 41 | 932.7 |
| 20260502042938 | 55 | 206 | 3.5 | 5.2 | 0.00 | 0.00 | 0.00 | 40 | 932.8 |
| 20260502042436 | 55 | 199 | 3.5 | 5.2 | 0.00 | 0.00 | 0.00 | 40 | 932.6 |
| 20260502041933 | 55 | 212 | 5.2 | 6.1 | 0.00 | 0.00 | 0.00 | 39 | 932.6 |
| 20260502041431 | 56 | 204 | 3.5 | 6.1 | 0.00 | 0.00 | 0.00 | 38 | 932.7 |
| 20260502040927 | 57 | 202 | 4.3 | 5.2 | 0.00 | 0.00 | 0.00 | 37 | 932.8 |
| 20260502040424 | 56 | 208 | 3.5 | 8.7 | 0.00 | 0.00 | 0.00 | 39 | 932.8 |
| 20260502035920 | 57 | 221 | 6.1 | 7.8 | 0.00 | 0.00 | 0.00 | 37 | 932.8 |
| 20260502035417 | 58 | 209 | 5.2 | 7.0 | 0.00 | 0.00 | 0.00 | 35 | 932.6 |
| 20260502034915 | 58 | 210 | 5.2 | 7.0 | 0.00 | 0.00 | 0.00 | 35 | 932.7 |
| 20260502034413 | 58 | 201 | 4.3 | 5.2 | 0.00 | 0.00 | 0.00 | 35 | 932.7 |
| 20260502033911 | 58 | 205 | 3.5 | 6.1 | 0.00 | 0.00 | 0.00 | 35 | 932.8 |
| 20260502033408 | 56 | 205 | 5.2 | 5.2 | 0.00 | 0.00 | 0.00 | 36 | 932.7 |
| 20260502032905 | 57 | 200 | 1.7 | 3.5 | 0.00 | 0.00 | 0.00 | 35 | 932.6 |
| 20260502032401 | 58 | 253 | 1.7 | 2.6 | 0.00 | 0.00 | 0.00 | 33 | 932.6 |
| 20260502031859 | 59 | 226 | 1.7 | 1.7 | 0.00 | 0.00 | 0.00 | 30 | 932.6 |
| 20260502031357 | 60 | 223 | 0.9 | 1.7 | 0.00 | 0.00 | 0.00 | 29 | 932.6 |
| 20260502030855 | 60 | 131 | 3.5 | 4.3 | 0.00 | 0.00 | 0.00 | 29 | 932.4 |
| 20260502030353 | 60 | 108 | 5.2 | 5.2 | 0.00 | 0.00 | 0.00 | 29 | 932.4 |
| 20260502025850 | 61 | 236 | 3.5 | 3.5 | 0.00 | 0.00 | 0.00 | 27 | 932.3 |
| 20260502025347 | 61 | 237 | 3.5 | 5.2 | 0.00 | 0.00 | 0.00 | 27 | 932.5 |
| 20260502024845 | 62 | 235 | 3.5 | 5.2 | 0.00 | 0.00 | 0.00 | 26 | 932.3 |
| 20260502024343 | 63 | 246 | 3.5 | 5.2 | 0.00 | 0.00 | 0.00 | 25 | 932.2 |
| 20260502023840 | 64 | 244 | 4.3 | 5.2 | 0.00 | 0.00 | 0.00 | 25 | 932.2 |
| 20260502023338 | 63 | 239 | 5.2 | 6.1 | 0.00 | 0.00 | 0.00 | 27 | 932.2 |
| 20260502022836 | 63 | 242 | 5.2 | 7.0 | 0.00 | 0.00 | 0.00 | 28 | 932.4 |
| 20260502022331 | 64 | 246 | 4.3 | 7.0 | 0.00 | 0.00 | 0.00 | 28 | 932.4 |
| 20260502021829 | 64 | 244 | 5.2 | 7.0 | 0.00 | 0.00 | 0.00 | 27 | 932.5 |
| 20260502021326 | 65 | 243 | 3.5 | 5.2 | 0.00 | 0.00 | 0.00 | 27 | 932.5 |
| 20260502020823 | 65 | 245 | 5.2 | 6.1 | 0.00 | 0.00 | 0.00 | 27 | 932.5 |
| 20260502020321 | 65 | 242 | 3.5 | 5.2 | 0.00 | 0.00 | 0.00 | 27 | 932.4 |
| 20260502015818 | 66 | 243 | 4.3 | 4.3 | 0.00 | 0.00 | 0.00 | 26 | 932.5 |
| 20260502015314 | 66 | 245 | 3.5 | 5.2 | 0.00 | 0.00 | 0.00 | 27 | 932.5 |
| 20260502014812 | 66 | 243 | 4.3 | 5.2 | 0.00 | 0.00 | 0.00 | 26 | 932.4 |
| 20260502014309 | 67 | 251 | 3.5 | 4.3 | 0.00 | 0.00 | 0.00 | 26 | 932.3 |
| 20260502013805 | 68 | 246 | 1.7 | 4.3 | 0.00 | 0.00 | 0.00 | 27 | 932.4 |
| 20260502013300 | 68 | 244 | 3.5 | 4.3 | 0.00 | 0.00 | 0.00 | 26 | 932.4 |
| 20260502012757 | 69 | 238 | 3.5 | 4.3 | 0.00 | 0.00 | 0.00 | 25 | 932.5 |
| 20260502012255 | 69 | 229 | 3.5 | 3.5 | 0.00 | 0.00 | 0.00 | 25 | 932.5 |
| 20260502011752 | 70 | 239 | 2.6 | 4.3 | 0.00 | 0.00 | 0.00 | 24 | 932.4 |
| 20260502011248 | 70 | 238 | 6.1 | 6.1 | 0.00 | 0.00 | 0.00 | 22 | 932.4 |
| 20260502010746 | 70 | 249 | 4.3 | 7.0 | 0.00 | 0.00 | 0.00 | 21 | 932.5 |
| 20260502010242 | 72 | 244 | 3.5 | 3.5 | 0.00 | 0.00 | 0.00 | 20 | 932.5 |
| 20260502005739 | 72 | 245 | 4.3 | 6.1 | 0.00 | 0.00 | 0.00 | 18 | 932.5 |
| 20260502005237 | 73 | 219 | 2.6 | 4.3 | 0.00 | 0.00 | 0.00 | 18 | 932.6 |
| 20260502004733 | 73 | 232 | 1.7 | 2.6 | 0.00 | 0.00 | 0.00 | 17 | 932.6 |
| 20260502004230 | 74 | 235 | 4.3 | 4.3 | 0.00 | 0.00 | 0.00 | 17 | 932.5 |
| 20260502003728 | 74 | 232 | 4.3 | 4.3 | 0.00 | 0.00 | 0.00 | 16 | 932.5 |
| 20260502003225 | 74 | 344 | 3.5 | 4.3 | 0.00 | 0.00 | 0.00 | 15 | 932.6 |
| 20260502002720 | 75 | 330 | 1.7 | 3.5 | 0.00 | 0.00 | 0.00 | 18 | 932.5 |
| 20260502002218 | 74 | 19 | 3.5 | 3.5 | 0.00 | 0.00 | 0.00 | 16 | 932.5 |
| 20260502001715 | 73 | 346 | 2.6 | 5.2 | 0.00 | 0.00 | 0.00 | 16 | 932.6 |
| 20260502001213 | 74 | 18 | 3.5 | 5.2 | 0.00 | 0.00 | 0.00 | 18 | 932.6 |
| 20260502000710 | 75 | 244 | 1.7 | 4.3 | 0.00 | 0.00 | 0.00 | 17 | 932.6 |
| 20260502000211 | 76 | 350 | 0.0 | 1.7 | 0.00 | 0.00 | 0.00 | 18 | 932.7 |
| 20260501235704 | 74 | 222 | 1.7 | 1.7 | 0.00 | 0.00 | 0.00 | 18 | 932.9 |
| 20260501235200 | 73 | 225 | 5.2 | 7.0 | 0.00 | 0.00 | 0.00 | 16 | 932.6 |
| 20260501234655 | 73 | 236 | 4.3 | 7.0 | 0.00 | 0.00 | 0.00 | 18 | 932.8 |
| 20260501234153 | 73 | 256 | 5.2 | 7.8 | 0.00 | 0.00 | 0.00 | 17 | 932.7 |
| 20260501233651 | 73 | 239 | 10.4 | 11.3 | 0.00 | 0.00 | 0.00 | 17 | 932.8 |
| 20260501233148 | 73 | 249 | 9.6 | 10.4 | 0.00 | 0.00 | 0.00 | 16 | 932.9 |
| 20260501232644 | 74 | 253 | 5.2 | 7.8 | 0.00 | 0.00 | 0.00 | 17 | 932.9 |
| 20260501232142 | 75 | 243 | 7.8 | 8.7 | 0.00 | 0.00 | 0.00 | 17 | 932.8 |
| 20260501231639 | 74 | 37 | 0.0 | 3.5 | 0.00 | 0.00 | 0.00 | 18 | 932.9 |
| 20260501231137 | 73 | 345 | 4.3 | 7.0 | 0.00 | 0.00 | 0.00 | 18 | 932.9 |
| 20260501230635 | 73 | 358 | 3.5 | 7.0 | 0.00 | 0.00 | 0.00 | 18 | 933.0 |
| 20260501230133 | 74 | 346 | 5.2 | 6.1 | 0.00 | 0.00 | 0.00 | 17 | 932.8 |
| 20260501225630 | 74 | 250 | 5.2 | 7.8 | 0.00 | 0.00 | 0.00 | 17 | 932.9 |
| 20260501225126 | 74 | 6 | 2.6 | 7.0 | 0.00 | 0.00 | 0.00 | 16 | 932.9 |
| 20260501224624 | 74 | 231 | 2.6 | 4.3 | 0.00 | 0.00 | 0.00 | 15 | 932.8 |
| 20260501224121 | 74 | 184 | 1.7 | 4.3 | 0.00 | 0.00 | 0.00 | 16 | 933.0 |
| 20260501223617 | 75 | 299 | 2.6 | 4.3 | 0.00 | 0.00 | 0.00 | 17 | 932.9 |
| 20260501223114 | 73 | 347 | 0.9 | 2.6 | 0.00 | 0.00 | 0.00 | 15 | 933.1 |
| 20260501222610 | 74 | 266 | 6.1 | 7.0 | 0.00 | 0.00 | 0.00 | 16 | 933.0 |
| 20260501222107 | 73 | 269 | 2.6 | 7.8 | 0.00 | 0.00 | 0.00 | 17 | 933.1 |
| 20260501221604 | 74 | 276 | 8.7 | 8.7 | 0.00 | 0.00 | 0.00 | 16 | 933.2 |
| 20260501221101 | 74 | 282 | 4.3 | 7.8 | 0.00 | 0.00 | 0.00 | 18 | 933.4 |
| 20260501220559 | 73 | 247 | 5.2 | 6.1 | 0.00 | 0.00 | 0.00 | 18 | 933.3 |
| 20260501220055 | 73 | 2 | 3.5 | 6.1 | 0.00 | 0.00 | 0.00 | 18 | 933.4 |
| 20260501215552 | 73 | 312 | 3.5 | 7.8 | 0.00 | 0.00 | 0.00 | 18 | 933.3 |
| 20260501215047 | 74 | 273 | 7.0 | 8.7 | 0.00 | 0.00 | 0.00 | 17 | 933.5 |
| 20260501214542 | 73 | 275 | 1.7 | 6.1 | 0.00 | 0.00 | 0.00 | 16 | 933.4 |
| 20260501214038 | 73 | 314 | 4.3 | 7.0 | 0.00 | 0.00 | 0.00 | 19 | 933.6 |
| 20260501213536 | 74 | 110 | 1.7 | 4.3 | 0.00 | 0.00 | 0.00 | 16 | 933.5 |
| 20260501213032 | 72 | 27 | 0.0 | 4.3 | 0.00 | 0.00 | 0.00 | 22 | 933.6 |
| 20260501212528 | 73 | 356 | 3.5 | 7.0 | 0.00 | 0.00 | 0.00 | 18 | 933.7 |
| 20260501212025 | 72 | 255 | 6.1 | 8.7 | 0.00 | 0.00 | 0.00 | 19 | 933.6 |
| 20260501211522 | 71 | 226 | 7.8 | 8.7 | 0.00 | 0.00 | 0.00 | 18 | 933.7 |
| 20260501211020 | 72 | 82 | 0.0 | 5.2 | 0.00 | 0.00 | 0.00 | 18 | 933.7 |
| 20260501210516 | 72 | 353 | 1.7 | 9.6 | 0.00 | 0.00 | 0.00 | 17 | 934.0 |
| 20260501210013 | 73 | 250 | 4.3 | 7.0 | 0.00 | 0.00 | 0.00 | 17 | 933.8 |
| 20260501205510 | 72 | 262 | 2.6 | 7.0 | 0.00 | 0.00 | 0.00 | 19 | 933.9 |
| 20260501205008 | 71 | 217 | 5.2 | 6.1 | 0.00 | 0.00 | 0.00 | 19 | 934.0 |
| 20260501204503 | 72 | 333 | 2.6 | 7.0 | 0.00 | 0.00 | 0.00 | 20 | 934.0 |
| 20260501203959 | 71 | 281 | 2.6 | 7.8 | 0.00 | 0.00 | 0.00 | 19 | 933.8 |
| 20260501203456 | 71 | 14 | 5.2 | 5.2 | 0.00 | 0.00 | 0.00 | 20 | 933.9 |
| 20260501202954 | 71 | 39 | 5.2 | 7.8 | 0.00 | 0.00 | 0.00 | 18 | 933.9 |
| 20260501202450 | 72 | 26 | 4.3 | 6.1 | 0.00 | 0.00 | 0.00 | 18 | 934.0 |
| 20260501201946 | 72 | 2 | 3.5 | 5.2 | 0.00 | 0.00 | 0.00 | 17 | 934.0 |
| 20260501201444 | 72 | 296 | 2.6 | 8.7 | 0.00 | 0.00 | 0.00 | 22 | 933.9 |
| 20260501200941 | 72 | 329 | 3.5 | 10.4 | 0.00 | 0.00 | 0.00 | 20 | 934.0 |
| 20260501200438 | 71 | 16 | 1.7 | 5.2 | 0.00 | 0.00 | 0.00 | 18 | 934.3 |
| 20260501195935 | 70 | 88 | 2.6 | 4.3 | 0.00 | 0.00 | 0.00 | 22 | 934.2 |
| 20260501195432 | 70 | 250 | 3.5 | 7.0 | 0.00 | 0.00 | 0.00 | 18 | 934.1 |
| 20260501194927 | 70 | 301 | 2.6 | 7.0 | 0.00 | 0.00 | 0.00 | 19 | 934.1 |